Location: Unspecified
(0.0000°N, 0.0000°E)
Time: 09:02:31
(UTC+00:00)

A-11 Canister half - Pass Details

Date: 17 June 2024
Orbit: 1515 x 1684 km, 47.2° (Epoch: 23 July)

Event Time Altitude Azimuth Distance (km) Brightness Sun altitude
Rises 03:44:24 0° 323° (NW) 4,687 11.5 -31.0°
Reaches altitude 10° 03:47:28 10° 325° (NW) 3,691 10.9 -30.3°
Maximum altitude 03:56:44 78° 50° (NE) 1,543 9.0 -28.3°
Drops below altitude 10° 04:05:59 10° 136° (SE) 3,681 11.2 -26.2°
Sets 04:09:01 0° 137° (SE) 4,674 11.7 -25.5°
